N0TKN Weather Reports


Display with metric or nautical units.
time (UTC)temp
F
wind
direction
speed
MPH
gust
MPH
rain 1hr
in
rain 24hr
in
rain mn
in
humidity
%
barometer
mb
20260504205516 82 201 9.0 20.0 0.00 0.01 0.01 45 1001.5
20260504204516 82 196 5.0 11.0 0.00 0.01 0.01 45 1001.6
20260504203516 81 199 7.0 16.0 0.00 0.01 0.01 44 1001.9
20260504202516 82 192 7.0 13.0 0.00 0.01 0.01 44 1002.0
20260504201517 82 200 9.0 16.0 0.00 0.01 0.01 44 1002.0
20260504200517 82 206 6.0 15.0 0.00 0.01 0.01 45 1001.8
20260504195517 81 202 6.0 16.0 0.00 0.01 0.01 45 1002.2
20260504194517 81 201 6.0 13.0 0.00 0.01 0.01 45 1002.2
20260504193517 82 191 6.0 13.0 0.00 0.01 0.01 45 1002.4
20260504192517 81 196 6.0 13.0 0.00 0.01 0.01 44 1002.4
20260504191518 81 196 4.0 10.0 0.00 0.01 0.01 44 1002.7
20260504190517 80 189 6.0 12.0 0.00 0.01 0.01 45 1002.3
20260504185518 80 201 7.0 13.0 0.00 0.01 0.01 45 1002.6
20260504184518 80 201 7.0 20.0 0.00 0.01 0.01 45 1003.2
20260504183518 81 196 7.0 13.0 0.00 0.01 0.01 44 1002.7
20260504182518 81 205 5.0 11.0 0.00 0.01 0.01 45 1002.6
20260504181516 80 202 4.0 8.0 0.00 0.01 0.01 46 1002.4
20260504180516 79 208 4.0 10.0 0.00 0.01 0.01 46 1002.4
20260504175515 78 203 6.0 11.0 0.00 0.01 0.01 46 1002.6
20260504174516 77 195 6.0 13.0 0.00 0.01 0.01 48 1002.4
20260504173516 75 192 3.0 8.0 0.00 0.01 0.01 51 1002.2
20260504172516 74 195 3.0 8.0 0.00 0.01 0.01 52 1003.1
20260504171516 74 186 3.0 8.0 0.00 0.01 0.01 52 1003.4
20260504170517 74 162 1.0 3.0 0.00 0.01 0.01 51 1003.9
20260504150518 68 239 2.0 8.0 0.00 0.01 0.01 72 1003.0
20260504140516 59 118 1.0 3.0 0.01 0.01 0.01 89 1004.5
20260504130517 62 66 1.0 5.0 0.00 0.00 0.00 76 1005.5
20260504110516 57 131 1.0 2.0 0.00 0.00 0.00 81 1006.5
20260504100517 58 89 1.0 3.0 0.00 0.00 0.00 78 1007.2
20260504081515 61 168 1.0 2.0 0.00 0.00 0.00 70 1007.1
20260504080517 61 200 2.0 3.0 0.00 0.00 0.00 69 1007.0
20260504050517 66 176 1.0 3.0 0.00 0.00 0.00 56 1007.7
20260504045517 66 346 1.0 4.0 0.00 0.00 0.00 58 1008.0
20260504044516 67 6 1.0 3.0 0.00 0.00 0.00 56 1008.0
20260504043517 68 171 1.0 5.0 0.00 0.00 0.00 53 1008.0
20260504042517 68 184 2.0 4.0 0.00 0.00 0.00 52 1008.0
20260504041518 69 211 1.0 6.0 0.00 0.00 0.00 51 1008.1
20260504040517 69 199 2.0 6.0 0.00 0.00 0.00 50 1008.0
20260504035518 69 200 2.0 4.0 0.00 0.00 0.00 50 1008.0
20260504034518 70 210 2.0 5.0 0.00 0.00 0.00 49 1008.0
20260504033518 70 199 2.0 5.0 0.00 0.00 0.00 49 1008.2
20260504032515 70 202 2.0 8.0 0.00 0.00 0.00 48 1008.2
20260504031518 71 201 1.0 7.0 0.00 0.00 0.00 47 1008.2
20260504030516 71 199 3.0 7.0 0.00 0.00 0.00 46 1008.1
20260504025516 72 218 2.0 8.0 0.00 0.00 0.00 46 1008.2
20260504024516 72 212 2.0 9.0 0.00 0.00 0.00 46 1008.1
20260504023516 72 192 2.0 5.0 0.00 0.00 0.00 45 1008.0
20260504022516 72 209 2.0 5.0 0.00 0.00 0.00 46 1008.0
20260504021516 72 204 2.0 5.0 0.00 0.00 0.00 46 1008.0
20260504020518 72 209 1.0 4.0 0.00 0.00 0.00 47 1008.0
20260504015516 73 199 2.0 5.0 0.00 0.00 0.00 48 1008.1
20260504014517 73 206 1.0 4.0 0.00 0.00 0.00 48 1008.1
20260504013517 74 229 1.0 5.0 0.00 0.00 0.00 47 1008.0
20260504012517 74 195 0.0 3.0 0.00 0.00 0.00 47 1008.1
20260504011517 74 203 0.0 3.0 0.00 0.00 0.00 47 1008.0
20260504010517 75 220 1.0 4.0 0.00 0.00 0.00 46 1007.9
20260504005517 75 218 1.0 2.0 0.00 0.00 0.00 45 1008.0
20260504004517 76 197 0.0 2.0 0.00 0.00 0.00 45 1008.0
20260504003518 76 222 0.0 2.0 0.00 0.00 0.00 45 1008.2
20260504002518 77 313 0.0 1.0 0.00 0.00 0.00 43 1008.3
20260504001518 78 327 0.0 2.0 0.00 0.00 0.00 42 1008.2
20260504000518 78 313 1.0 4.0 0.00 0.00 0.00 40 1008.2
20260503235515 78 317 1.0 4.0 0.00 0.00 0.00 40 1008.3
20260503234515 78 300 2.0 5.0 0.00 0.00 0.00 39 1008.3
20260503233516 79 293 2.0 5.0 0.00 0.00 0.00 38 1008.2
20260503232516 79 281 2.0 5.0 0.00 0.00 0.00 37 1008.1
20260503231517 80 268 4.0 10.0 0.00 0.00 0.00 36 1008.1
20260503230516 81 282 2.0 5.0 0.00 0.00 0.00 35 1008.2
20260503225517 81 308 3.0 7.0 0.00 0.00 0.00 34 1007.9
20260503224516 82 298 3.0 7.0 0.00 0.00 0.00 33 1008.0
20260503223517 81 284 3.0 9.0 0.00 0.00 0.00 33 1007.9
20260503222517 81 304 4.0 11.0 0.00 0.00 0.00 33 1007.9
20260503221517 82 220 3.0 9.0 0.00 0.00 0.00 35 1007.8
20260503220517 82 204 4.0 8.0 0.00 0.00 0.00 34 1007.8
20260503215518 81 200 4.0 13.0 0.00 0.00 0.00 34 1007.9
20260503214517 81 236 4.0 12.0 0.00 0.00 0.00 34 1007.9
20260503213518 82 250 5.0 13.0 0.00 0.00 0.00 33 1007.9
20260503212518 81 222 4.0 8.0 0.00 0.00 0.00 35 1008.1
20260503211518 81 215 3.0 9.0 0.00 0.00 0.00 36 1008.0
20260503210518 80 203 6.0 12.0 0.00 0.00 0.00 37 1008.1